[[{"header":{"parameterUnit":"m.s-1","parameterCategory":1,"la1":30.2991,"la2":30.254,"lo1":-89.0895,"lo2":-89.0444,"dy":0.0017,"dx":0.0017,"nx":28,"ny":28,"refTime":"2024-08-30T21:00:00:Z","depth":0,"parameterNumber":2,"parameterNumberName":"U-component_of_WINDS"},"data":[0,0,0,0,0,0,0,0,0,0,0,0,0,0,0,0,0,0,0,0,0,0,0,0,0,0,0,0,0,0,0,0,0,0,0,0,0,0,0,0,0,0,0,0,0,0,0,0,0,0,0,0,0,0,0,0,0,0,-5.9424,-5.9423,0,-5.932,-5.9319,-5.9317,-5.913,-5.9127,-5.9123,-5.912,-5.9021,-5.9021,-5.9022,0,0,0,0,0,0,0,0,0,0,0,0,0,-5.9465,-5.9466,-5.9424,-5.9423,-5.9421,-5.932,-5.9319,-5.9317,-5.9131,-5.9126,-5.9122,-5.9118,-5.902,-5.9021,-5.9022,0,0,0,0,0,0,0,0,0,0,0,0,0,-5.9413,-5.9466,-5.9424,-5.9316,-5.9305,-5.932,-5.9318,-5.9317,-5.9132,-5.9126,-5.9121,-5.9116,-5.902,-5.9021,-5.9022,-5.9137,0,0,-5.9025,-5.9026,0,0,0,0,0,0,0,0,-5.9416,-5.9412,-5.9333,-5.9323,-5.9311,-5.9232,-5.9296,-5.9257,-5.9133,-5.9198,-5.9119,-5.9113,-5.9096,-5.909,-5.9083,-5.9132,-5.9128,-5.9026,-5.9026,-5.9027,-5.9027,0,0,0,0,0,0,0,-5.942,-5.9415,-5.9383,-5.9332,-5.9319,-5.9274,-5.926,-5.9288,-5.9179,-5.9192,-5.9178,-5.9168,-5.9089,-5.9082,-5.9079,-5.9126,-5.9026,-5.9026,-5.9027,-5.9028,-5.9261,-5.9266,0,0,0,0,0,0,-5.9439,-5.942,-5.9386,-5.938,-5.9351,-5.9278,-5.9262,-5.9263,-5.9178,-5.9159,-5.9172,-5.9159,-5.9083,-5.9078,-5.9075,-5.9201,-5.9027,-5.9028,-5.9028,-5.9256,-5.9262,-5.9268,0,0,0,0,0,0,-5.9441,-5.9438,-5.939,-5.9396,-5.9386,-5.9282,-5.9285,-5.9264,-5.9257,-5.9163,-5.9143,-5.9186,-5.9079,-5.9074,-5.9121,-5.9195,-5.9028,-5.9029,-5.9249,-5.9258,-5.9265,-5.9457,0,0,0,0,0,0,-5.9443,-5.9439,-5.9481,-5.9398,-5.9387,-5.9438,-5.9289,-5.9266,-5.9259,-5.9241,-5.917,-5.9153,-5.9074,-5.9121,-5.9123,-5.9194,-5.903,-5.9242,-5.9253,-5.9263,-5.9444,-5.9471,-5.9494,0,0,0,0,0,-5.9445,-5.9542,-5.9484,-5.9482,-5.9436,-5.9443,-5.9436,-5.9341,-5.9265,-5.9307,-5.9246,-5.9156,-5.9187,-5.9127,-5.9128,-5.9201,-5.9237,-5.925,-5.9262,-5.9432,-5.9466,-5.9494,0,0,0,0,0,0,-5.964,-5.9529,-5.9464,-5.9537,-5.95,-5.9411,-5.9461,-5.938,-5.9366,-5.935,-5.9234,-5.922,-5.9283,-5.9246,-5.9182,-5.9305,-5.9198,-5.9211,-5.9327,-5.9358,-5.9383,-5.9391,-5.9031,0,0,0,0,0,-5.9691,-5.9704,-5.9606,-5.968,-5.9664,-5.9566,-5.9565,-5.9494,-5.9453,-5.9437,-5.938,-5.9345,-5.9346,-5.935,-5.9346,-5.9437,-5.9418,-5.9487,-5.9512,-5.9533,-5.9547,-5.959,-5.9619,-5.9309,-5.9309,-5.9309,0,0,-5.9798,-5.9739,-5.9754,-5.9718,-5.9681,-5.9697,-5.9555,-5.9579,-5.959,-5.9442,-5.9482,-5.9439,-5.9392,-5.9461,-5.9489,-5.9433,-5.9627,-5.9549,-5.9567,-5.9568,-5.9606,-5.9635,-5.9661,-5.9318,-5.9316,-5.9315,0,0,-6.0,-5.9957,-6.0012,-5.9977,-5.9921,-5.9854,-5.9868,-5.979,-5.9754,-5.9792,-5.968,-5.9693,-5.9699,-5.9668,-5.9654,-5.9841,-5.9758,-5.9844,-5.9976,-6.002,-6.0044,-6.0065,-6.0131,-6.0156,-5.9857,-5.9857,-5.9858,0,-6.0141,-6.0159,-6.0052,-6.0081,-6.0068,-5.993,-5.9985,-5.9957,-5.9906,-5.99,-5.9837,-5.9838,-5.9797,-5.9856,-5.9901,-5.9895,-5.9907,-5.9852,-6.0049,-6.0069,-6.0087,-6.0148,-6.0174,-5.9868,-5.9867,-5.9866,-5.9865,0,-6.0334,-6.0348,-6.04,-6.0348,-6.0341,-6.0384,-6.0283,-6.0289,-6.0218,-6.0158,-6.0198,-6.0143,-6.0124,-6.0133,-6.0066,-6.0183,-6.0149,-6.0069,-5.9959,-6.0129,-6.0185,-6.0208,-5.9883,-5.988,-5.9876,-5.9874,0,0,-6.066,-6.0545,-6.0566,-6.0539,-6.0466,-6.0476,-6.0512,-6.049,-6.0497,-6.0465,-6.0492,-6.0498,-6.0422,-6.0406,-6.0334,-6.0372,-6.0522,-6.0287,-6.0284,-6.0332,-6.0646,-6.0706,-6.0735,-6.0465,-6.0469,-6.0473,-6.0649,0,-6.0847,-6.09,-6.0802,-6.0879,-6.089,-6.0757,-6.0788,-6.0747,-6.0692,-6.0694,-6.0633,-6.0638,-6.0538,-6.0527,-6.0559,-6.0497,-6.0584,-6.0483,-6.0491,-6.0492,-6.0507,-6.0764,-6.0829,-6.0999,-6.0671,-6.0674,-6.0677,0,-6.1074,-6.1048,-6.1125,-6.1043,-6.1044,-6.1074,-6.1044,-6.1048,-6.0999,-6.0955,-6.0935,-6.0848,-6.0878,-6.0771,-6.0811,-6.0744,-6.0741,-6.0711,-6.0716,-6.0713,-6.0596,-6.0769,-6.1051,-6.1076,-6.071,-6.0708,-6.0705,0,-6.1303,-6.1288,-6.1331,-6.1313,-6.1219,-6.1243,-6.1205,-6.115,-6.1142,-6.1117,-6.1111,-6.1091,-6.1081,-6.1068,-6.0979,-6.0909,-6.1029,-6.0915,-6.0995,-6.0997,-6.1027,-6.1027,-6.1312,-6.1026,-6.1025,-6.1025,-6.1024,0,-6.1522,-6.1575,-6.1432,-6.1459,-6.1513,-6.1399,-6.1457,-6.1406,-6.1357,-6.1372,-6.1257,-6.1274,-6.1154,-6.1158,-6.1089,-6.1131,-6.1128,-6.1095,-6.1075,-6.1105,-6.1109,-6.1102,-6.1088,-6.1032,-6.103,-6.1029,-6.1028,0,-6.1789,-6.1696,-6.1733,-6.164,-6.1617,-6.1661,-6.1581,-6.1603,-6.1537,-6.1558,-6.1556,-6.1456,-6.1454,-6.1362,-6.1343,-6.1296,-6.1368,-6.1328,-6.1385,-6.1372,-6.1457,-6.145,-6.1748,-6.1781,-6.1474,-6.1477,-6.148,0,-6.1936,-6.1972,-6.188,-6.188,-6.1847,-6.185,-6.1839,-6.1729,-6.1723,-6.1667,-6.1695,-6.1683,-6.1668,-6.1672,-6.1598,-6.1583,-6.1541,-6.1646,-6.1538,-6.1565,-6.1541,-6.154,-6.1543,-6.167,-6.1674,-6.1677,-6.1679,0,-6.2206,-6.2156,-6.2145,-6.2117,-6.2107,-6.208,-6.2047,-6.2054,-6.1932,-6.1932,-6.1927,-6.1915,-6.1892,-6.1882,-6.1851,-6.1814,-6.1728,-6.1713,-6.1731,-6.1762,-6.1793,-6.1776,-6.1447,-6.1708,-6.1705,-6.1703,-6.1701,-6.17,-6.2416,-6.2441,-6.2379,-6.2369,-6.2331,-6.2301,-6.2315,-6.225,-6.2242,-6.2213,-6.2148,-6.2153,-6.21,-6.2049,-6.2019,-6.2022,-6.1969,-6.1995,-6.2002,-6.201,-6.2026,-6.1791,-6.2017,-6.2016,-6.2015,-6.2014,-6.2013,0,-6.268,-6.2632,-6.2624,-6.2577,-6.257,-6.2484,-6.2441,-6.2441,-6.2445,-6.2401,-6.2387,-6.238,-6.2368,-6.2292,-6.2272,-6.2289,-6.2249,-6.2288,-6.2286,-6.2278,-6.2075,-6.2061,-6.232,-6.232,-6.232,-6.232,-6.232,-6.232,-6.2816,-6.2852,-6.2795,-6.2811,-6.2762,-6.2763,-6.2746,-6.2718,-6.2681,-6.2678,-6.2666,-6.2614,-6.2557,-6.2531,-6.2517,-6.2495,-6.2493,-6.2545,-6.2511,-6.2322,-6.2293,-6.2265,-6.2251,-6.2546,-6.2546,-6.2713,-6.2714,-6.2716]},{"header":{"parameterUnit":"m.s-1","parameterCategory":1,"la1":30.2991,"la2":30.254,"lo1":-89.0895,"lo2":-89.0444,"dy":0.0017,"dx":0.0017,"nx":28,"ny":28,"refTime":"2024-08-30T21:00:00:Z","depth":0,"parameterNumber":3,"parameterNumberName":"V-component_of_WINDS"},"data":[0,0,0,0,0,0,0,0,0,0,0,0,0,0,0,0,0,0,0,0,0,0,0,0,0,0,0,0,0,0,0,0,0,0,0,0,0,0,0,0,0,0,0,0,0,0,0,0,0,0,0,0,0,0,0,0,0,0,-0.4754,-0.4754,0,-0.474,-0.4739,-0.4739,-0.4745,-0.4745,-0.4745,-0.4746,-0.474,-0.4739,-0.4739,0,0,0,0,0,0,0,0,0,0,0,0,0,-0.4791,-0.479,-0.4754,-0.4754,-0.4754,-0.474,-0.4739,-0.4739,-0.4745,-0.4745,-0.4745,-0.4746,-0.474,-0.4739,-0.4739,0,0,0,0,0,0,0,0,0,0,0,0,0,-0.4776,-0.479,-0.4754,-0.4754,-0.4754,-0.474,-0.4739,-0.4739,-0.4745,-0.4745,-0.4745,-0.4746,-0.474,-0.4739,-0.4739,-0.4726,0,0,-0.4737,-0.4736,0,0,0,0,0,0,0,0,-0.4777,-0.4775,-0.4754,-0.4754,-0.4754,-0.4744,-0.475,-0.4735,-0.4744,-0.4749,-0.4746,-0.4746,-0.4741,-0.4741,-0.4737,-0.4725,-0.4725,-0.4737,-0.4736,-0.4736,-0.4736,0,0,0,0,0,0,0,-0.4778,-0.4775,-0.4749,-0.4754,-0.4754,-0.4757,-0.4755,-0.4747,-0.4743,-0.4748,-0.4748,-0.4746,-0.4741,-0.4738,-0.4737,-0.4725,-0.4737,-0.4736,-0.4736,-0.4735,-0.4697,-0.4696,0,0,0,0,0,0,-0.4778,-0.4776,-0.4749,-0.4748,-0.4766,-0.4756,-0.4754,-0.4747,-0.4743,-0.4743,-0.4746,-0.4746,-0.4739,-0.4738,-0.4737,-0.4718,-0.4736,-0.4735,-0.4735,-0.4698,-0.4697,-0.4696,0,0,0,0,0,0,-0.4779,-0.4776,-0.475,-0.4762,-0.4759,-0.4755,-0.4747,-0.4747,-0.4743,-0.4741,-0.4741,-0.4743,-0.4739,-0.4738,-0.4727,-0.4718,-0.4735,-0.4734,-0.4698,-0.4697,-0.4697,-0.4682,0,0,0,0,0,0,-0.478,-0.4776,-0.477,-0.4762,-0.4758,-0.4738,-0.4746,-0.4746,-0.4741,-0.4741,-0.4738,-0.4738,-0.4739,-0.4728,-0.4726,-0.4718,-0.4734,-0.4699,-0.4698,-0.4697,-0.4684,-0.4681,-0.4679,0,0,0,0,0,-0.4781,-0.477,-0.477,-0.4767,-0.475,-0.4738,-0.4736,-0.4735,-0.474,-0.4734,-0.4732,-0.4738,-0.4719,-0.4726,-0.4725,-0.4716,-0.47,-0.4698,-0.4697,-0.4685,-0.4681,-0.4679,0,0,0,0,0,0,-0.4783,-0.4769,-0.4769,-0.4754,-0.4746,-0.4739,-0.4732,-0.4733,-0.4726,-0.4728,-0.4729,-0.4729,-0.4716,-0.4715,-0.4724,-0.4701,-0.471,-0.4709,-0.4702,-0.4699,-0.4696,-0.4697,-0.4733,0,0,0,0,0,-0.478,-0.4768,-0.4758,-0.4746,-0.4742,-0.4737,-0.4732,-0.4731,-0.4725,-0.4722,-0.472,-0.4715,-0.4708,-0.4704,-0.4697,-0.4683,-0.4681,-0.4676,-0.4674,-0.4672,-0.467,-0.4659,-0.4655,-0.4692,-0.4692,-0.4692,0,0,-0.4777,-0.4768,-0.4762,-0.4746,-0.474,-0.4729,-0.4735,-0.4724,-0.4716,-0.4722,-0.4709,-0.4707,-0.4702,-0.4688,-0.4682,-0.4687,-0.4659,-0.467,-0.4668,-0.4668,-0.4657,-0.4653,-0.465,-0.4691,-0.4691,-0.4691,0,0,-0.4765,-0.4758,-0.4744,-0.4736,-0.4725,-0.4721,-0.4717,-0.4708,-0.4705,-0.4691,-0.4694,-0.4685,-0.4674,-0.4668,-0.4664,-0.4643,-0.4647,-0.4641,-0.4629,-0.4618,-0.4615,-0.4613,-0.4602,-0.4599,-0.464,-0.464,-0.464,0,-0.4764,-0.4744,-0.4739,-0.4725,-0.4717,-0.4717,-0.4703,-0.4697,-0.4686,-0.4681,-0.4685,-0.4666,-0.4664,-0.4646,-0.464,-0.4638,-0.4634,-0.4642,-0.4615,-0.4613,-0.4611,-0.4601,-0.4597,-0.4639,-0.4639,-0.4639,-0.4639,0,-0.4741,-0.4728,-0.4719,-0.4701,-0.4693,-0.468,-0.4672,-0.4665,-0.4663,-0.4659,-0.4643,-0.4639,-0.4629,-0.4625,-0.4626,-0.4607,-0.4609,-0.4615,-0.4625,-0.4606,-0.4597,-0.4594,-0.4638,-0.4638,-0.4638,-0.4638,0,0,-0.4735,-0.4708,-0.4705,-0.4695,-0.4679,-0.467,-0.4655,-0.4641,-0.4633,-0.4625,-0.4612,-0.4599,-0.4602,-0.4597,-0.4597,-0.4587,-0.4567,-0.4594,-0.4593,-0.4587,-0.4541,-0.4536,-0.4532,-0.4569,-0.4568,-0.4568,-0.4541,0,-0.4719,-0.469,-0.4681,-0.4658,-0.4643,-0.464,-0.4627,-0.4616,-0.461,-0.4599,-0.4594,-0.4583,-0.4589,-0.4585,-0.4576,-0.4571,-0.4557,-0.4573,-0.4558,-0.4557,-0.4557,-0.4528,-0.4523,-0.4498,-0.4538,-0.4537,-0.4537,0,-0.4699,-0.4683,-0.4655,-0.4636,-0.4629,-0.4618,-0.4601,-0.459,-0.4577,-0.4574,-0.4564,-0.4564,-0.4549,-0.4558,-0.4537,-0.4548,-0.4541,-0.4537,-0.4536,-0.4534,-0.4545,-0.4523,-0.4491,-0.4486,-0.4532,-0.4532,-0.4532,0,-0.4693,-0.4665,-0.4643,-0.4635,-0.4613,-0.4604,-0.4595,-0.4582,-0.4572,-0.4559,-0.4552,-0.4539,-0.4532,-0.4522,-0.4517,-0.4525,-0.4495,-0.4506,-0.4492,-0.4492,-0.4486,-0.4486,-0.445,-0.4484,-0.4484,-0.4484,-0.4484,0,-0.4677,-0.466,-0.4639,-0.4626,-0.4606,-0.4596,-0.4578,-0.4569,-0.4556,-0.4542,-0.454,-0.4527,-0.4522,-0.4509,-0.4506,-0.4487,-0.4485,-0.4481,-0.448,-0.448,-0.448,-0.4475,-0.4476,-0.4483,-0.4483,-0.4483,-0.4483,0,-0.4668,-0.4653,-0.4629,-0.4606,-0.46,-0.4586,-0.4568,-0.4556,-0.4547,-0.4529,-0.4524,-0.4513,-0.4496,-0.4489,-0.4472,-0.4469,-0.4446,-0.4448,-0.4449,-0.4448,-0.4433,-0.4434,-0.4392,-0.4385,-0.4425,-0.4424,-0.4424,0,-0.4658,-0.4643,-0.4617,-0.4604,-0.4592,-0.4574,-0.4561,-0.4551,-0.4539,-0.4519,-0.4508,-0.449,-0.4475,-0.4448,-0.444,-0.4425,-0.4425,-0.4411,-0.4423,-0.4421,-0.4422,-0.4421,-0.4419,-0.4409,-0.4408,-0.4408,-0.4408,0,-0.4641,-0.4632,-0.4613,-0.4588,-0.4572,-0.4554,-0.4537,-0.4528,-0.4514,-0.4501,-0.448,-0.4468,-0.4445,-0.4427,-0.4409,-0.4402,-0.4402,-0.4403,-0.4399,-0.4398,-0.4398,-0.4395,-0.444,-0.4405,-0.4405,-0.4405,-0.4406,-0.4406,-0.463,-0.4614,-0.4591,-0.4568,-0.4551,-0.4534,-0.4518,-0.4505,-0.4486,-0.4463,-0.4459,-0.4436,-0.442,-0.4396,-0.4388,-0.4371,-0.4375,-0.4369,-0.4368,-0.4366,-0.4363,-0.4401,-0.4368,-0.4369,-0.4369,-0.4369,-0.4369,0,-0.4611,-0.4593,-0.4571,-0.4543,-0.4524,-0.452,-0.4499,-0.4484,-0.4463,-0.4446,-0.4428,-0.4403,-0.4384,-0.4371,-0.4351,-0.434,-0.4339,-0.4335,-0.4335,-0.4333,-0.4362,-0.4366,-0.4336,-0.4336,-0.4336,-0.4336,-0.4336,-0.4336,-0.4598,-0.457,-0.4558,-0.4521,-0.4505,-0.4479,-0.4466,-0.445,-0.4435,-0.4404,-0.4386,-0.4376,-0.436,-0.4338,-0.432,-0.4316,-0.4309,-0.4304,-0.4301,-0.4328,-0.4332,-0.4335,-0.4339,-0.4302,-0.4302,-0.4272,-0.4272,-0.4272]}]]